Location: D?uga
(50.2667°N, 19.7833°E)
Time: 00:12:22
(UTC+00:00)

ADEOS II - Pass Details

Date: 23 May 2024
Orbit: 795 x 798 km, 98.7° (Epoch: 18 June)

Event Time Altitude Azimuth Distance (km) Brightness Sun altitude
Rises 01:11:30 0° 15° (NNE) 3,314 6.7 -11.4°
Reaches altitude 10° 01:13:51 10° 16° (NNE) 2,379 5.8 -11.2°
Maximum altitude 01:19:07 86° 106° (ESE) 805 2.1 -10.6°
Enters shadow 01:24:18 10° 195° (SSW) 2,340 3.9 -10.1°
